« Back
NWS Peachtree City, Ga » Text Product » GA Regional Weather Roundup


Printer-friendly Version
Current Version              Previous Versions:   1  2  3  4  5  6  7  8  9  

Regional Weather Roundup

045
ASUS42 KFFC 310703
RWRGA
WEATHER ROUNDUP FOR GEORGIA
NATIONAL WEATHER SERVICE PEACHTREE CITY GA
300 AM EDT SUN AUG 31 2014

NOTE: "FAIR" INDICATES FEW OR NO CLOUDS BELOW 12,000 FEET WITH NO
SIGNIFICANT WEATHER AND/OR OBSTRUCTIONS TO VISIBILITY.

* = USE WITH CAUTION. THE STATIONS MARKED WITH AN ASTERISK MAY NOT
REPORT WEATHER SUCH AS PRECIPITATION, FOG, OR THUNDER AND ARE NOT
QUALITY CONTROLLED BY NWS.

THE REMARK "TC" DENOTES TEMPERATURE READING IN DEGREES CELSIUS.

GAZ001>058-310800-
NORTH GEORGIA

CITY           SKY/WX    TMP DP  RH WIND       PRES   REMARKS
ATLANTA        MOCLDY    73  71  93 E3        30.15F
ATHENS         LGT RAIN  74  72  93 CALM      30.16S
CHAMBLEE       MOCLDY    72  69  90 CALM      30.16S
PEACHTREE CITY PTCLDY    72  71  97 CALM      30.15F FOG
ROME           PTCLDY    69  69 100 CALM      30.13F
WEST ATLANTA   MOCLDY    71  70  96 CALM      30.15F
GAINESVILLE    CLOUDY    71  69  93 SE5       30.18F
CARTERSVILLE   PTCLDY    71  69  93 CALM      30.14F


CITY           SKY/WX    TMP DP  RH WIND       PRES   REMARKS
DALTON*        MOCLDY    70  70 100 CALM      30.14F
MARIETTA       MOCLDY    71  71 100 CALM      30.16S
$$

GAZ059>098-102>109-310800-
CENTRAL GEORGIA

CITY           SKY/WX    TMP DP  RH WIND       PRES   REMARKS
AUGUSTA-BUSH   PTCLDY    73  71  93 SE5       30.12F
AUGUSTA-DANIEL PTCLDY    77  73  87 SE5       30.14F
COLUMBUS       PTCLDY    75  73  93 E3        30.13S
MACON          CLOUDY    75  75 100 CALM      30.13F
ROBINS AFB     CLOUDY    75  74  97 S5        30.13F


CITY           SKY/WX    TMP DP  RH WIND       PRES   REMARKS
LAGRANGE*      FOG       74  74  99 SE3       30.13F VSB 1/2
SYLVANIA*      PTCLDY    73  73 100 CALM      30.14S
MILLEDGEVILLE* CLOUDY    79  75  89 CALM      30.15
$$

GAZ099>101-110>166-310800-
SOUTH GEORGIA

CITY           SKY/WX    TMP DP  RH WIND       PRES   REMARKS
SAVANNAH       PTCLDY    79  74  84 S3        30.13F
VALDOSTA       HVY RAIN  73  73 100 CALM      30.17R VSB 3/4
ALMA           CLOUDY    75  73  93 CALM      30.14R
ST SIMONS      CLEAR     81  76  84 S5        30.13F
FT STEWART     PTCLDY    75  73  92 CALM      30.12F
ALBANY         MOCLDY    74  73  97 S3        30.15R
HUNTER AFB     PTCLDY    77  76  98 CALM      30.11F
BRUNSWICK      PTCLDY    77  73  88 CALM      30.13F


CITY           SKY/WX    TMP DP  RH WIND       PRES   REMARKS
BAINBRIDGE*    MOCLDY    79  77  94 CALM      30.13F
MOULTRIE*      LGT RAIN  75  73  94 SE5       30.15S
VIDALIA*         N/A     79  75  89 CALM      30.14F
WAYCROSS*      PTCLDY    80  77  92 S3        30.14R
DOUGLAS*       MOCLDY    79  73  83 CALM      30.15S
$$



USA.gov is the U.S. government's official web portal to all federal, state and local government web resources and services.